Résultats de la compétition "Chpt de Ligue" du 02-05-2010 organisée par le club 9006
     
  Télécharger le fichier CSV.  
     
     

 Circuit "A"

Licence Nom Prénom Temps CN
précédent
Score sur
la course
Différence
1518MULLERMarc0:40:0665216588+67
16260SCHNEBELENJulien0:44:2148545957+1103
6523WYMEREddie0:44:2170765957-1119
17898GAINEFrancis0:44:3359695930-39
16097PONCETClement0:45:1759975834-163
2953VUILLEMINMichel0:46:5857305625-105
1884DUBOCMichel0:48:2457385459-279
736POURREAlain0:48:3465205440-1080
22248MICHAUDHervé0:48:38N/A5432N/A
9759BALLOTGabriel0:48:46N/A5417N/A
13237POULAINAntoine0:48:5754685397-71
1335BEAUDEUXPhilippe0:49:5954335286-147
5640HUEBERFrancois0:50:1944985251+753
2796LEGALLAISJ-Luc0:50:3854965218-278
11875FRANCOISGerald0:51:1445055157+652
19726DANNECKERGilles0:51:5347725092+320
2372DIETSCHBernard0:52:3152105031-179
20277BRULPORTDavid0:52:4446135010+397
8042FLECKFrederick0:53:4841624911+749
19024DALIBARDNicolas0:54:1747004867+167
20048HANAUERJean Marie0:54:1748184867+49
1186JANANDPatrick0:54:1951164864-252
12830REICHYann0:54:26N/A4854N/A
20975LEBRASSEUREric0:54:4443824827+445
3675CHALOPINMathieu0:55:1947074776+69
16234DOLCIMathias0:55:4951294733-396
12240BROUARDLoic0:56:3451654670-495
2369BRELLMANNHubert0:57:2045394608+69
312JOLYThierry0:58:0948234543-280
22846DOTTPascal0:58:39N/A4505N/A
366VESCOVOJ-Albert1:00:3451994362-837
2894LEBIHANMarcel1:00:3554494361-1088
10998RENAUDBernard1:00:5046224343-279
2376MAKOVICKALibor1:01:4444144280-134
6819HOUDAYERPhilippe1:01:5538994267+368
12828REICHAlain1:02:0032974261+964
9760VERGNEFrederic1:05:14N/A4050N/A
5938EGGLIRoland1:05:2747944037-757
21168POIRSONGaëtan1:05:5734034006+603
1910MEYERJ-Marc1:06:4251613961-1200
1086ROBERTChristian1:07:2949593915-1044
1808GUTSCHENRITTERGuy1:08:19N/A3867N/A
740RUAUDAlain1:08:3637103851+141
1906MERTZAndre1:11:1231863711+525
16756PONCETJ-Pierre1:11:1547943708-1086
21254VIEILLE PETITJean Philippe1:11:2039003704-196
3303MOUGELGabriel1:12:4643563631-725
22483ADAMOlivier1:13:55N/A3574N/A
22482PUPATEddy1:14:17N/A3557N/A
4059FAIVREDaniel1:16:2845503455-1095
703ABISSEJacques1:16:3042563454-802
23162BARTISSOLMaxime1:16:39N/A3447N/A
724LAURENTPhilippe1:17:0837743425-349
13693HAURYMarc1:17:3129523408+456
1710CERINIJ-Michel1:19:1337443335-409
2370CHARLOTPatrick1:19:2341353328-807
700LALLEMENDEric1:21:3620343238+1204
13052RAVIERGilles1:21:4026243235+611
9045BIOTFrancois1:24:0132893145-144
12522CHAPUISPatrick1:25:0723873104+717
2368BENACEKVaclav1:26:1641123063-1049
1916RUHLMANNJ-Pierre1:31:4635202879-641
14223FISCHERGuy1:33:1538632833-1030
21225GHEERAERTGilles1:37:3025882710+122
3905JOUFFROYMichel1:38:1231742690-484
336DUBREZDaniel1:45:1802509N/A
19554MARTINGilles1:50:0925832398-185
15297BOEHMYves2:12:2225971996-601
6901FOUCAULTHerveN/A34910-3491
320BAGUEREYGillesN/A43740-4374
10273MERZOUGUISlimN/AN/A0N/A
22042OGERStéphaneN/A32470-3247
2379BILQUEZEricN/A47910-4791

  Indice de confiance du circuit (moyenne des différences entre CN et score sur la course des 3 à 10 premiers) : 138




 Circuit "B"

Licence Nom Prénom Temps CN
précédent
Score sur
la course
Différence
19772JAEGERMeike0:39:46N/A5398N/A
745TINCHANTEstelle0:43:0742244979+755
302BAGUEREYBaptiste0:46:0942674651+384
706BACHEREdith0:46:4251744597-577
7259SUTTERAriane0:48:5546144388-226
738POURREValerie0:51:0543624202-160
12361BALLOTAurelie0:51:16N/A4187N/A
632DUBROCAChristele0:54:59N/A3904N/A
2378MAKOVICKAVeronique0:57:1244123753-659
1223PICHOLSabrina0:57:16N/A3748N/A
746TINCHANTJ-Marc1:00:0831213570+449
2952ARMBRUSTERMarie1:02:4734623419-43
13692HAURYEvelyne1:02:5240673415-652
13688FRANCOISAline1:03:0834213400-21
12763LASSEIGNELaurent1:03:44N/A3368N/A
1087ROBERTMartine1:05:2837323279-453
702WYMERIsabelle1:06:0653703247-2123
13875HOTHANHChristine1:09:2523873092+705
20905BITSCHENESylvain1:10:5618493026+1177
20882FERLETBénédicte1:11:1231313015-116
4215CHAPUISLaurence1:12:5824632942+479
20409SCHELCHERGinette1:13:0426072938+331
22249DARNEYAngélique1:17:05N/A2785N/A
18931MAUVILLYKarine1:18:0728262748-78
701ABISSEGisele1:18:3133702734-636
11511BRELLMANNMichel1:18:5833872718-669
1909MEYERCorinne1:22:5633622588-774
89TAUZIN-LAMYChristine1:25:0229902524-466
19433REFFAYGilbert1:26:5726312469-162
15296GREVETClaudie1:27:0221722466+294
20483MEYERCatherine1:50:3728351941-894
2387SUTTEROdileN/A25420-2542
22380ALARCONHélèneN/AN/A0N/A

  Indice de confiance du circuit (moyenne des différences entre CN et score sur la course des 3 à 10 premiers) : 208




 Circuit "C"

Licence Nom Prénom Temps CN
précédent
Score sur
la course
Différence
5638TARDYVictor0:22:5858176900+1083
7260SUTTEROlivier0:29:3660275354-673
22095LITZLERBertrand0:30:2443465213+867
22104VIVOTNoé0:32:0140384950+912
19028SCHMIDT-MORGENROTHJacques0:32:0650904937-153
22102MARTINLéo0:33:2736334738+1105
21473GIRARDBaptiste0:34:4344364565+129
8639BILQUEZHugo0:38:1444834145-338
20907CLEMENTMaxime0:39:3933683997+629
12523DOREAlexandre0:40:0137593960+201
22103GAULARDAntoine0:41:3126873817+1130
19743TARDYPatrick0:41:5103787N/A
18467GOETTMANNPierre-Aimé0:47:2946263338-1288
20363GUILLOTMaxime0:49:4521843185+1001
18468GOETTMANNThomas0:51:0533713102-269
15858CASASSASAntoine0:56:2532162809-407
2555RIAULTBernard0:56:2939262806-1120
23277BRANCHERIEJohny0:58:37N/A2704N/A
20361GUILLOTBruno0:59:0431702683-487
12102BOUVERETMichelle0:59:1032012678-523
15538DOREIsabelle1:03:5123712482+111
21471HARTMANNTanguy1:05:3023782419+41
2611AMIOTJacques1:06:0130122401-611
1022ZUANBernard1:15:12N/A2107N/A
20362GUILLOTSylvie1:15:5319832088+105
23184BEAUDEUXAnny1:22:57N/A1910N/A
739RUAUDAgnes1:23:2421581900-258
368VESCOVOOdile1:24:4516491870+221
12829REICHM-Louise1:25:2218321856+24
7811MEUNIERPatrice1:26:0720921840-252
370WOEHRLEGilbert1:27:4626181806-812
7910MOUGELDanielle1:32:5627181705-1013
19680GOETTMANNJean-PierreN/A36730-3673
19270PASQUAPierreN/A33660-3366

  Indice de confiance du circuit (moyenne des différences entre CN et score sur la course des 3 à 10 premiers) : 321




 Circuit "D"

Licence Nom Prénom Temps CN
précédent
Score sur
la course
Différence
20407FERNANDEZAlexia0:30:0338574008+151
10072BACHERAmelie0:34:1326153520+905
10077POURREMarion0:35:3535843385-199
6779MAKOVICKAElsa0:39:3737573040-717
10024RUHLMANNElodie0:48:1027362501-235
20283GOUNANDEmeline0:51:3028212339-482
20061MORELStephanie1:05:30N/A1839N/A

  Indice de confiance du circuit (moyenne des différences entre CN et score sur la course des 3 à 10 premiers) : 672




 Circuit "E"

Licence Nom Prénom Temps CN
précédent
Score sur
la course
Différence
16648JANANDPierre-Louis0:21:4629213195+274
19413HANAUERSébastien0:22:1734333121-312
19736GHEERAERTHugo0:22:4325463062+516
20408HANAUERFlorence0:23:2926542962+308
17171VUILLEMINPauline0:24:4127012818+117
14273POURREJeremi0:24:5926432784+141
11508LEBIHANBarbara0:26:3428962618-278
20364GUILLOTJeanne0:27:1216542557+903
20973WOLZAymeric0:33:2519682081+113
13477DIETSCHJoel0:34:3727732009-764
13872JOUFFROYAxel0:37:2620401858-182
21991BRAHIM BOUNABRiyan0:37:5021571838-319
23432DOTTAnathael0:39:29N/A1762N/A
19455ABRAHAMHugo0:39:32N/A1759N/A
21990SALOMONFabrice0:54:3217471275-472
19555MARTINSarah1:00:4301146N/A
725LAURENTTherese1:07:3521681029-1139
21990SALOMONFabrice1:19:341747874-873
20328REFFAYCyrilN/A00N/A

  Indice de confiance du circuit (moyenne des différences entre CN et score sur la course des 3 à 10 premiers) : 311




 Circuit "F"

Licence Nom Prénom Temps CN
précédent
Score sur
la course
Différence
16649WYMERKylian0:16:4019762526+550
17575HENRYOcéane0:21:32N/A1955N/A
15863BACHERManon0:25:0912121674+462
21963BITSCHENELaure0:27:12N/A1548N/A
16679RENAUDJustin0:33:4901245N/A
22683DUPONCELLEMargot0:39:21N/A1070N/A
20365GUILLOTEmileN/A11760-1176

  Indice de confiance du circuit (moyenne des différences entre CN et score sur la course des 3 à 10 premiers) : 697




 Circuit "G"

Licence Nom Prénom Temps CN
précédent
Score sur
la course
Différence
12832FOUCAULTJuline0:24:569641654+690
23029RUHLMANNMélina0:25:38N/A1608N/A
22084BAECHELEIda0:27:17N/A1511N/A
23430DOTTLéane0:29:26N/A1401N/A
20186LEDITiffany0:32:2001275N/A
17074FRANCOISLysa0:33:539001217+317
19119WYMERAlyssia0:38:317321070+338
13874FOUCAULTDorian0:41:49761986+225
21226FLECKThomas0:46:27620888+268
23431DOTTMaloN/AN/A0N/A

  Indice de confiance du circuit (moyenne des différences entre CN et score sur la course des 3 à 10 premiers) : 553






 Retour